FW6370 Weather Reports


time (UTC)temp
C
wind
direction
speed
KPH
gust
KPH
rain 1hr
cm
rain 24hr
cm
rain mn
cm
humidity
%
barometer
mb
20260504035015 6 0.0 0.0 0.00 0.00 0.00 84 1017.3
20260504034015 6 0.0 0.0 0.00 0.00 0.00 83 1017.3
20260504033015 6 0.0 0.0 0.00 0.00 0.00 83 1017.1
20260504032016 6 0.0 0.0 0.00 0.00 0.00 81 1016.8
20260504031015 6 0.0 0.0 0.00 0.00 0.00 81 1016.9
20260504030035 6 0.0 0.0 0.00 0.00 0.00 81 1017.0
20260504025015 6 0.0 0.0 0.00 0.00 0.00 80 1017.0
20260504024015 6 0.0 0.0 0.00 0.00 0.00 80 1016.8
20260504023015 7 0.0 0.0 0.00 0.00 0.00 79 1017.0
20260504022015 7 0.0 0.0 0.00 0.00 0.00 78 1016.8
20260504021016 7 0.0 0.0 0.00 0.00 0.00 77 1016.8
20260504020015 7 0.0 0.0 0.00 0.00 0.00 77 1016.5
20260504015016 8 0.0 0.0 0.00 0.00 0.00 76 1016.4
20260504014015 8 0.0 0.0 0.00 0.00 0.00 75 1016.4
20260504013016 8 0.0 0.0 0.00 0.00 0.00 74 1016.3
20260504012035 8 0.0 0.0 0.00 0.00 0.00 72 1016.1
20260504011015 9 0.0 0.0 0.00 0.00 0.00 72 1016.1
20260504010035 10 0.0 0.0 0.00 0.00 0.00 69 1016.0
20260504005015 10 0.0 0.0 0.00 0.00 0.00 68 1015.9
20260504004014 10 0.0 0.0 0.00 0.00 0.00 67 1015.8
20260504003015 11 0.0 0.0 0.00 0.00 0.00 65 1015.7
20260504002035 11 0.0 0.0 0.00 0.00 0.00 63 1015.7
20260504001015 12 0.0 0.0 0.00 0.00 0.00 61 1015.8
20260504000016 13 0.0 0.0 0.00 0.00 0.00 59 1015.9
20260503235015 13 0.0 0.0 0.00 0.00 0.00 57 1016.0
20260503234037 14 0.0 0.0 0.00 0.00 0.00 55 1016.0
20260503233017 15 0.0 4.8 0.00 0.00 0.00 53 1016.0
20260503232057 15 334 1.6 4.8 0.00 0.00 0.00 50 1016.0
20260503231016 16 326 3.2 6.4 0.00 0.00 0.00 46 1016.1
20260503230017 16 332 3.2 6.4 0.00 0.00 0.00 44 1016.0
20260503225017 16 339 3.2 8.0 0.00 0.00 0.00 44 1016.2
20260503224017 16 341 3.2 8.0 0.00 0.00 0.00 43 1016.3
20260503223037 16 324 3.2 6.4 0.00 0.00 0.00 41 1016.3
20260503222037 16 302 3.2 9.7 0.00 0.00 0.00 41 1016.4
20260503221037 16 340 3.2 9.7 0.00 0.00 0.00 38 1016.4
20260503220016 17 322 3.2 6.4 0.00 0.00 0.00 38 1016.4
20260503215058 17 328 3.2 8.0 0.00 0.00 0.00 39 1016.5
20260503214036 17 333 3.2 8.0 0.00 0.00 0.00 39 1016.6
20260503213016 17 337 3.2 9.7 0.00 0.00 0.00 39 1016.7
20260503212017 17 331 3.2 9.7 0.00 0.00 0.00 40 1016.8
20260503211036 17 344 3.2 6.4 0.00 0.00 0.00 41 1017.0
20260503210016 17 330 3.2 9.7 0.00 0.00 0.00 42 1017.1
20260503205016 17 343 3.2 11.3 0.00 0.00 0.00 41 1017.2
20260503204016 17 318 3.2 11.3 0.00 0.00 0.00 42 1017.3
20260503203036 17 319 3.2 8.0 0.00 0.00 0.00 42 1017.5
20260503202016 17 325 3.2 9.7 0.00 0.00 0.00 44 1017.7
20260503201016 17 357 3.2 9.7 0.00 0.00 0.00 42 1017.9
20260503200016 17 341 3.2 8.0 0.00 0.00 0.00 44 1018.0
20260503195016 17 340 4.8 12.9 0.00 0.00 0.00 44 1018.1
20260503194056 17 330 4.8 12.9 0.00 0.00 0.00 46 1018.1
20260503193016 17 326 4.8 11.3 0.00 0.00 0.00 46 1018.2
20260503192016 17 332 4.8 11.3 0.00 0.00 0.00 45 1018.3
20260503191017 17 320 4.8 9.7 0.00 0.00 0.00 47 1018.4
20260503190016 17 332 4.8 9.7 0.00 0.00 0.00 44 1018.4
20260503185016 17 345 4.8 9.7 0.00 0.00 0.00 44 1018.5
20260503184037 17 331 4.8 12.9 0.00 0.00 0.00 46 1018.5
20260503183016 16 345 4.8 12.9 0.00 0.00 0.00 44 1018.7
20260503182016 16 321 3.2 8.0 0.00 0.00 0.00 43 1018.8
20260503181016 16 332 4.8 11.3 0.00 0.00 0.00 44 1018.8
20260503180016 16 341 4.8 11.3 0.00 0.00 0.00 45 1018.9
20260503175016 16 327 3.2 9.7 0.00 0.00 0.00 47 1019.1
20260503174016 16 335 4.8 9.7 0.00 0.00 0.00 46 1019.2
20260503173015 16 336 3.2 8.0 0.00 0.00 0.00 47 1019.3
20260503172016 15 273 1.6 6.4 0.00 0.00 0.00 47 1019.5
20260503171016 15 320 3.2 9.7 0.00 0.00 0.00 46 1019.7
20260503131036 3 0.0 0.0 0.00 0.00 0.00 91 1018.8
20260503081016 3 0.0 0.0 0.00 0.00 0.00 88 1016.8
20260503072037 3 0.0 0.0 0.00 0.00 0.00 87 1016.3
20260503071016 3 0.0 0.0 0.00 0.00 0.00 86 1016.3
20260503055016 6 0.0 0.0 0.00 0.00 0.00 79 1016.5
20260503054016 6 0.0 0.0 0.00 0.00 0.00 76 1016.4
20260503053015 6 0.0 0.0 0.00 0.00 0.00 75 1016.4
20260503052016 7 0.0 0.0 0.00 0.00 0.00 76 1016.6
20260503051016 7 0.0 0.0 0.00 0.00 0.00 76 1016.4
20260503050016 7 0.0 0.0 0.00 0.00 0.00 77 1016.4
20260503045016 7 0.0 1.6 0.00 0.00 0.00 77 1016.6
20260503044035 7 126 0.0 3.2 0.00 0.00 0.00 77 1016.6
20260503043016 7 126 0.0 4.8 0.00 0.00 0.00 76 1016.4
20260503042015 7 126 1.6 11.3 0.00 0.00 0.00 77 1016.2
20260503041016 7 126 3.2 11.3 0.00 0.00 0.00 79 1016.1
20260503040015 6 140 3.2 8.0 0.00 0.00 0.00 79 1016.2